CW3794 Weather Reports


Display with metric or nautical units.
time (UTC)temp
F
wind
direction
speed
MPH
gust
MPH
rain 1hr
in
rain 24hr
in
rain mn
in
humidity
%
barometer
mb
20180423191340 89 227 0.0 4.0 0.00 0.00 0.00 18 1015.3
20180423185845 88 251 1.0 5.0 0.00 0.00 0.00 18 1015.4
20180423185356 88 263 1.0 4.0 0.00 0.00 0.00 18 1015.5
20180423184903 87 250 0.0 5.0 0.00 0.00 0.00 18 1015.7
20180423183858 87 264 1.0 4.0 0.00 0.00 0.00 19 1015.8
20180423183419 87 202 0.0 3.0 0.00 0.00 0.00 19 1015.9
20180423182853 87 238 0.0 4.0 0.00 0.00 0.00 19 1015.9
20180423181933 86 237 0.0 4.0 0.00 0.00 0.00 19 1016.0
20180423181414 86 264 0.0 4.0 0.00 0.00 0.00 20 1016.0
20180423180355 86 165 0.0 5.0 0.00 0.00 0.00 19 1016.2
20180423175853 86 277 0.0 2.0 0.00 0.00 0.00 20 1016.2
20180423175353 85 278 0.0 5.0 0.00 0.00 0.00 20 1016.3
20180423174916 84 279 0.0 5.0 0.00 0.00 0.00 20 1016.2
20180423174429 84 247 0.0 4.0 0.00 0.00 0.00 20 1016.3
20180423173923 84 257 0.0 4.0 0.00 0.00 0.00 20 1016.3
20180423173412 84 244 0.0 4.0 0.00 0.00 0.00 20 1016.4
20180423172359 84 216 0.0 4.0 0.00 0.00 0.00 20 1016.5
20180423171409 84 240 1.0 5.0 0.00 0.00 0.00 20 1016.4
20180423170929 84 158 0.0 5.0 0.00 0.00 0.00 20 1016.5
20180423170415 83 140 0.0 1.0 0.00 0.00 0.00 20 1016.5
20180423164414 83 146 0.0 0.0 0.00 0.00 0.00 21 1016.5
20180423160807 80 146 0.0 2.0 0.00 0.00 0.00 23 1016.3
20180423160242 79 146 0.0 5.0 0.00 0.00 0.00 22 1016.3
20180423155748 79 145 0.0 5.0 0.00 0.00 0.00 23 1016.2
20180423155321 79 109 1.0 5.0 0.00 0.00 0.00 23 1016.3
20180423154837 79 100 0.0 3.0 0.00 0.00 0.00 22 1016.1
20180423154331 78 105 0.0 4.0 0.00 0.00 0.00 23 1016.1
20180423153323 78 148 0.0 4.0 0.00 0.00 0.00 24 1016.1
20180423152841 78 149 1.0 4.0 0.00 0.00 0.00 23 1016.1
20180423151802 76 152 1.0 6.0 0.00 0.00 0.00 24 1016.1
20180423151332 76 161 1.0 6.0 0.00 0.00 0.00 25 1016.1
20180423150810 75 132 0.0 5.0 0.00 0.00 0.00 25 1015.9
20180423150340 75 137 1.0 5.0 0.00 0.00 0.00 26 1016.0
20180423145300 74 129 0.0 5.0 0.00 0.00 0.00 26 1015.9
20180423143333 71 178 0.0 1.0 0.00 0.00 0.00 28 1015.7
20180423142821 70 179 0.0 1.0 0.00 0.00 0.00 29 1015.6
20180423141801 68 261 0.0 0.0 0.00 0.00 0.00 30 1015.4
20180423140328 66 329 0.0 0.0 0.00 0.00 0.00 31 1015.4
20180423135833 65 328 0.0 0.0 0.00 0.00 0.00 31 1015.3
20180423135319 64 328 0.0 0.0 0.00 0.00 0.00 31 1015.3
20180423134758 64 328 0.0 0.0 0.00 0.00 0.00 31 1015.2
20180423134333 63 329 0.0 0.0 0.00 0.00 0.00 32 1015.2
20180423132840 62 328 0.0 1.0 0.00 0.00 0.00 32 1015.0
20180423131800 61 329 0.0 2.0 0.00 0.00 0.00 33 1014.9
20180423130807 60 328 0.0 1.0 0.00 0.00 0.00 34 1014.8
20180423130334 60 328 0.0 1.0 0.00 0.00 0.00 34 1014.7
20180423125838 60 350 0.0 0.0 0.00 0.00 0.00 34 1014.5
20180423124808 60 350 0.0 0.0 0.00 0.00 0.00 33 1014.3
20180423124338 60 350 0.0 0.0 0.00 0.00 0.00 33 1014.3
20180423123340 60 350 0.0 0.0 0.00 0.00 0.00 33 1014.2
20180423122836 60 350 0.0 0.0 0.00 0.00 0.00 32 1014.1
20180423122312 60 350 0.0 0.0 0.00 0.00 0.00 32 1014.0
20180423121830 60 350 0.0 0.0 0.00 0.00 0.00 31 1014.0
20180423121302 60 350 0.0 0.0 0.00 0.00 0.00 31 1013.8
20180423120830 60 350 0.0 0.0 0.00 0.00 0.00 31 1013.7
20180423120327 60 350 0.0 0.0 0.00 0.00 0.00 31 1013.6
20180423114324 61 350 0.0 0.0 0.00 0.00 0.00 30 1013.4
20180423113334 61 350 0.0 0.0 0.00 0.00 0.00 30 1013.4
20180423112809 61 350 0.0 0.0 0.00 0.00 0.00 29 1013.3
20180423112325 61 350 0.0 0.0 0.00 0.00 0.00 30 1013.3
20180423105313 63 350 0.0 0.0 0.00 0.00 0.00 28 1012.9
20180423103320 63 350 0.0 0.0 0.00 0.00 0.00 28 1012.8
20180423102801 64 350 0.0 0.0 0.00 0.00 0.00 28 1012.8
20180423101802 64 350 0.0 0.0 0.00 0.00 0.00 27 1012.8
20180423100826 64 350 0.0 3.0 0.00 0.00 0.00 27 1012.7
20180423095807 64 350 0.0 3.0 0.00 0.00 0.00 27 1012.7
20180423095329 64 350 0.0 3.0 0.00 0.00 0.00 27 1012.7
20180423094826 64 350 1.0 3.0 0.00 0.00 0.00 27 1012.6
20180423093816 64 350 0.0 0.0 0.00 0.00 0.00 27 1012.6
20180423093339 64 350 0.0 0.0 0.00 0.00 0.00 27 1012.6
20180423092305 65 350 0.0 0.0 0.00 0.00 0.00 26 1012.6
20180423091310 65 350 0.0 3.0 0.00 0.00 0.00 26 1012.6
20180423090308 65 350 2.0 4.0 0.00 0.00 0.00 27 1012.6
20180423085807 65 350 2.0 3.0 0.00 0.00 0.00 27 1012.6
20180423084824 65 350 1.0 3.0 0.00 0.00 0.00 27 1012.7
20180423082822 66 261 0.0 0.0 0.00 0.00 0.00 28 1012.8
20180423081826 66 261 0.0 0.0 0.00 0.00 0.00 27 1012.8
20180423080810 66 261 0.0 0.0 0.00 0.00 0.00 27 1012.8
20180423080335 67 261 0.0 0.0 0.00 0.00 0.00 27 1012.7
20180423075826 67 261 0.0 0.0 0.00 0.00 0.00 27 1012.7
20180423073337 67 261 0.0 1.0 0.00 0.00 0.00 27 1012.6
20180423072832 67 261 0.0 0.0 0.00 0.00 0.00 27 1012.6
20180423072325 67 261 0.0 0.0 0.00 0.00 0.00 27 1012.6
20180423071826 67 261 0.0 0.0 0.00 0.00 0.00 27 1012.5
20180423070802 67 261 0.0 0.0 0.00 0.00 0.00 27 1012.4
20180423065327 69 261 0.0 0.0 0.00 0.00 0.00 26 1012.2
20180423063759 70 261 0.0 0.0 0.00 0.00 0.00 25 1012.2
20180423062802 71 261 0.0 0.0 0.00 0.00 0.00 25 1012.1
20180423062337 71 261 0.0 0.0 0.00 0.00 0.00 24 1011.9
20180423061311 71 261 0.0 0.0 0.00 0.00 0.00 24 1011.9
20180423060824 72 261 0.0 0.0 0.00 0.00 0.00 23 1011.8
20180423060321 72 261 0.0 0.0 0.00 0.00 0.00 23 1011.8
20180423055311 73 261 0.0 1.0 0.00 0.00 0.00 23 1011.8
20180423054316 73 261 0.0 0.0 0.00 0.00 0.00 23 1011.8
20180423053313 73 261 0.0 1.0 0.00 0.00 0.00 22 1011.7
20180423051833 73 260 0.0 0.0 0.00 0.00 0.00 23 1011.7
20180423051314 73 260 0.0 0.0 0.00 0.00 0.00 23 1011.5
20180423050810 74 260 0.0 0.0 0.00 0.00 0.00 23 1011.6
20180423050311 74 260 0.0 0.0 0.00 0.00 0.00 23 1011.6
20180423045835 74 260 0.0 0.0 0.00 0.00 0.00 24 1011.5
20180423045340 74 260 0.0 0.0 0.00 0.00 0.00 24 1011.5
20180423044834 74 260 0.0 0.0 0.00 0.00 0.00 24 1011.5
20180423044318 75 260 0.0 0.0 0.00 0.00 0.00 24 1011.6
20180423043856 75 260 0.0 0.0 0.00 0.00 0.00 24 1011.5
20180423043331 75 260 0.0 0.0 0.00 0.00 0.00 24 1011.5
20180423042345 75 260 0.0 0.0 0.00 0.00 0.00 25 1011.4
20180423041844 75 260 0.0 0.0 0.00 0.00 0.00 25 1011.4
20180423040823 76 260 0.0 0.0 0.00 0.00 0.00 24 1011.2
20180423035849 77 260 0.0 0.0 0.00 0.00 0.00 22 1011.2
20180423035331 77 260 0.0 0.0 0.00 0.00 0.00 22 1011.2
20180423034838 77 260 0.0 0.0 0.00 0.00 0.00 22 1011.1
20180423033900 78 260 0.0 0.0 0.00 0.00 0.00 22 1011.0
20180423032346 80 260 0.0 0.0 0.00 0.00 0.00 21 1011.0
20180423031827 81 260 0.0 0.0 0.00 0.00 0.00 21 1011.0
20180423031328 81 260 0.0 0.0 0.00 0.00 0.00 20 1010.9
20180423030324 81 260 0.0 0.0 0.00 0.00 0.00 20 1010.8
20180423025850 81 260 0.0 0.0 0.00 0.00 0.00 20 1010.9
20180423025344 81 260 0.0 0.0 0.00 0.00 0.00 20 1010.7
20180423024336 82 260 0.0 0.0 0.00 0.00 0.00 22 1010.6
20180423022852 84 260 0.0 0.0 0.00 0.00 0.00 20 1010.5
20180423020838 86 243 0.0 3.0 0.00 0.00 0.00 18 1010.1
20180423014348 87 231 1.0 4.0 0.00 0.00 0.00 17 1010.1
20180423013905 87 232 1.0 4.0 0.00 0.00 0.00 17 1010.1
20180423012832 87 228 1.0 2.0 0.00 0.00 0.00 17 1009.9
20180423012400 87 228 0.0 3.0 0.00 0.00 0.00 17 1009.9
20180423011834 88 228 0.0 3.0 0.00 0.00 0.00 17 1009.9
20180423011337 88 268 0.0 4.0 0.00 0.00 0.00 17 1009.8
20180423010836 88 269 1.0 4.0 0.00 0.00 0.00 17 1009.8
20180423005340 90 266 2.0 9.0 0.00 0.00 0.00 17 1009.8
20180423004839 90 251 4.0 11.0 0.00 0.00 0.00 16 1009.9
20180423003345 90 271 3.0 10.0 0.00 0.00 0.00 16 1009.9
20180423002358 90 243 2.0 5.0 0.00 0.00 0.00 16 1009.9
20180423001838 90 277 1.0 6.0 0.00 0.00 0.00 16 1009.9
20180423001337 91 279 3.0 6.0 0.00 0.00 0.00 16 1009.9
20180422235906 91 255 1.0 5.0 0.00 0.00 0.00 16 1009.9
20180422234333 91 265 3.0 6.0 0.00 0.00 0.00 16 1010.0
20180422233401 92 196 0.0 2.0 0.00 0.00 0.00 16 1010.0
20180422232852 92 217 0.0 2.0 0.00 0.00 0.00 16 1010.0
20180422225906 90 283 2.0 7.0 0.00 0.00 0.00 16 1010.2
20180422224331 89 238 1.0 5.0 0.00 0.00 0.00 17 1010.2
20180422223401 91 212 1.0 4.0 0.00 0.00 0.00 17 1010.3
20180422222842 91 171 0.0 3.0 0.00 0.00 0.00 17 1010.3
20180422221326 91 281 1.0 3.0 0.00 0.00 0.00 17 1010.5
20180422220901 91 281 1.0 3.0 0.00 0.00 0.00 16 1010.6
20180422215853 90 282 0.0 8.0 0.00 0.00 0.00 17 1010.8
20180422213905 91 3 1.0 7.0 0.00 0.00 0.00 16 1011.0
20180422212324 92 212 0.0 5.0 0.00 0.00 0.00 16 1011.2
20180422211837 92 241 1.0 5.0 0.00 0.00 0.00 16 1011.3
20180422210826 92 221 1.0 6.0 0.00 0.00 0.00 16 1011.4
20180422210339 92 185 0.0 6.0 0.00 0.00 0.00 17 1011.5
20180422205402 92 191 0.0 4.0 0.00 0.00 0.00 17 1011.7
20180422203855 91 148 1.0 12.0 0.00 0.00 0.00 17 1011.7
20180422203407 91 152 0.0 7.0 0.00 0.00 0.00 17 1011.8
20180422200846 91 202 0.0 3.0 0.00 0.00 0.00 18 1012.0
20180422200407 90 210 0.0 5.0 0.00 0.00 0.00 17 1012.1
20180422194329 89 243 1.0 4.0 0.00 0.00 0.00 19 1012.3
20180422193328 89 261 0.0 1.0 0.00 0.00 0.00 19 1012.5